STARLINK-1744

Last updated on Fri Nov 06 2020 00:02:03 GMT+0000 (Coordinated Universal Time)

1 46587U 20070BH 20310.83334491 -.00575465 00000-0 -23761-2 0 9995 2 46587 52.9842 287.9124 0001951 306.9866 46.1170 15.86500908 5656

Satellite not in orbit